CZ-3C DEB, 40202

Orbit data source: Space-Track

CZ-3C DEB, 40202 is space debris in HEO originally from a launch on Fri, 24 Feb 2012 UTC launched from the Xichang Space Center, China (XSC). Debris objects in space refer to the collection of defunct objects orbiting the Earth. Examples of debris include non-operational satellites, rocket bodies, and fragments generated from explosions, collisions, or faulty payload assembly.

Loading next visibility...
Identifier
40202, 2012-008M
Orbit
HEO
Country
Flag of CNCN / PRC
Related business
Manufacturer
CALT
Mission
Spacecraft
Bus & Motor
Unknown
Mass
Unknown
Launch date (UTC)
2012-02-24 (14 years ago)
Launch vehicle
Unknown
Launch site
Xichang Space Center, China (XSC)
Object type
Payload
Rocket body
Debris
Shape & HBR
Unknown
Radar Cross Section
Medium (>0.1 m² and <1 m²)

Expand to show TLE details & history
Last TLE update: 2 days ago

TLE from 2 days ago
0 CZ-3C DEB
1 40202U 12008M   25259.47284110  .00000723  00000-0  39454-2 0  9998
2 40202  20.2779 300.9178 7124345   3.7260 359.7058  2.36166870104471
Epoch: 2025-09-16T11:20Z
TLE epoch observation values (Epoch: 2025-09-16T11:20:53.471Z)
Latitude
0.00015°
Longitude
135.03585°
Altitude
472.611 km
Speed
9.981 km/s
True Right ascension
20h 03m 41s
True Declination
0° 00' 01"
Sunlit
Object was in full shadow at epoch
Visualization orbit readout
Latitude
Unknown
Longitude
Unknown
Altitude
Unknown
Speed
Unknown
Apparent Right ascension
Unknown
Apparent Declination
Unknown
Sunlit
N/A
Visualization observer readout
Local Sidereal Time
02:41:34
Azimuth
Unknown
Elevation
Unknown
Doppler factor
Unknown
Orbital elements
Apogee altitude
34,417.785 km
Perigee altitude
472.636 km
Semi-major axis
23,823.347 km
Eccentricity
0.71243
Inclination
20.2779°
RAAN
300.9178°
Arg. of periapsis
3.726°
True anomaly
357.50408°
Mean anomaly
359.7058°
Eccentric anomaly
358.97706°
Mean motion
0.59025 °/min
Orbital period
609.91 mins
BSTAR
0.0039454
Loading maneuver chart data...
Computing Atmospheric mass density...
Loading historical data...
Loading historical data...
Loading historical data...
Loading historical data...
Loading historical data...
Loading historical data...
Loading historical data...

Documentation

Showing up to 5 results
|